Home > Weather > Jelgava > Past weeks

Flag for Latvia Weather for the Past 2 Weeks in Jelgava, Latvia

Now
36 °F

Clear.


Feels Like: 31 °F
Forecast: 35 / 56 °F
Wind: 6 mph from South

Location: Riga Airport

Current Time: Apr 29, 2016 at 1:08:08 AM

Latest Report: Apr 29, 2016 at 12:20 AM


Visibility: 5 mi

Pressure: 30.07 "Hg

Humidity: 100%

Dew Point: 36 °F

Location of JelgavaLocation

Historic Weather in Jelgava — Graph

°F

Jelgava Temperature Yesterday

Maximum temperature yesterday: 63 °F (at 12:50 PM)
Minimum temperature yesterday: 39 °F (at 5:20 PM)
Average temperature yesterday: 48 °F

High & Low Weather Summary for the Past Weeks

 TemperatureHumidityPressure
High63 °F (Apr 28, 12:50 PM)100% (Apr 14, 3:50 AM)30.07 "Hg (Apr 14, 3:50 AM)
Low27 °F (Apr 15, 5:50 AM)29% (Apr 15, 1:20 PM)29.47 "Hg (Apr 24, 5:20 PM)
Average43 °F78%29.74 "Hg
* Reported Apr 13 11:20 PM — Apr 28 11:20 PM, Jelgava, Weather by CustomWeather, © 2016

Note: Actual official high and low records may vary slightly from our data, if they occured in-between our weather recording intervals... More about our weather records

Advertising

Jelgava Weather History for the Previous 24 Hours

Scroll right to see more
 ConditionsComfort  
Time TempWeatherWind HumidityBarometerVisibility
11:20 PM
Thu, Apr 28
39 °FPassing clouds.6 mph93%30.04 "HgN/A
10:50 PM41 °FClear.6 mph93%30.04 "Hg10 mi
10:20 PM43 °FPassing clouds.6 mph87%30.01 "HgN/A
9:50 PM41 °FLight rain. Scattered clouds.3 mph93%30.01 "HgN/A
9:20 PM39 °FSunny.1 mph100%30.01 "Hg10 mi
8:50 PM41 °FSunny.3 mph93%30.01 "Hg10 mi
8:20 PM43 °FScattered clouds.5 mph87%29.98 "HgN/A
7:50 PM43 °FScattered clouds.7 mph87%29.98 "HgN/A
7:20 PM43 °FBroken clouds.7 mph87%29.98 "HgN/A
6:50 PM43 °FBroken clouds.8 mph87%29.95 "HgN/A
6:20 PM43 °FScattered clouds.8 mph93%29.92 "HgN/A
5:50 PM39 °FSprinkles. Cloudy.9 mph100%29.92 "HgN/A
5:20 PM39 °FSprinkles. Cloudy.13 mph100%29.89 "HgN/A
4:50 PM41 °FSprinkles. Partly sunny.13 mph93%29.86 "Hg4 mi
4:20 PM43 °FSprinkles. Scattered clouds.17 mph87%29.83 "HgN/A
3:20 PM48 °FSprinkles. Passing clouds.13 mph71%29.80 "HgN/A
2:50 PM57 °FPassing clouds.24 mph51%29.77 "HgN/A
2:20 PM63 °FPassing clouds.14 mph34%29.74 "HgN/A
1:50 PM63 °FPassing clouds.16 mph34%29.74 "HgN/A
1:20 PM63 °FPassing clouds.15 mph34%29.74 "HgN/A
12:50 PM63 °FPassing clouds.15 mph34%29.74 "HgN/A
12:20 PM61 °FPassing clouds.13 mph42%29.77 "HgN/A
11:20 AM59 °FPassing clouds.14 mph42%29.77 "HgN/A
10:50 AM59 °FPassing clouds.14 mph45%29.77 "HgN/A
10:20 AM57 °FPassing clouds.13 mph48%29.80 "HgN/A
8:50 AM52 °FSunny.12 mph54%29.83 "Hg10 mi
8:20 AM48 °FSunny.10 mph62%29.83 "Hg10 mi
7:50 AM48 °FPassing clouds.8 mph62%29.83 "HgN/A
6:50 AM45 °FPassing clouds.6 mph66%29.86 "HgN/A
6:20 AM45 °FPassing clouds.7 mph66%29.86 "HgN/A
5:50 AM43 °FPassing clouds.7 mph71%29.86 "HgN/A
5:20 AM45 °FPassing clouds.8 mph66%29.86 "HgN/A
4:50 AM45 °FPassing clouds.6 mph71%29.86 "HgN/A
4:20 AM45 °FPassing clouds.7 mph71%29.86 "HgN/A
3:50 AM45 °FClear.6 mph71%29.89 "Hg10 mi
3:20 AM46 °FClear.7 mph62%29.89 "Hg10 mi
2:50 AM46 °FClear.6 mph66%29.89 "Hg10 mi
2:20 AM41 °FPassing clouds.3 mph76%29.89 "HgN/A
1:20 AM46 °FPassing clouds.5 mph66%29.89 "HgN/A
Weather by CustomWeather, © 2016

See weather overviewHow to use our weather pages